| time (UTC) | temp C | wind direction | speed KPH | gust KPH | rain 1hr cm | rain 24hr cm | rain mn cm | humidity % | barometer mb |
| 20260504033016 | 7 | 1 | 0.0 | 0.0 | 0.00 | 0.00 | 0.00 | 65 | 1017.0 |
| 20260504031522 | 7 | 1 | 0.0 | 0.0 | 0.00 | 0.00 | 0.00 | 66 | 1017.0 |
| 20260504030027 | 7 | 1 | 0.0 | 0.0 | 0.00 | 0.00 | 0.00 | 65 | 1017.1 |
| 20260504024510 | 7 | 1 | 0.0 | 3.2 | 0.00 | 0.00 | 0.00 | 64 | 1017.2 |
| 20260504023017 | 7 | 37 | 0.0 | 0.0 | 0.00 | 0.00 | 0.00 | 62 | 1017.2 |
| 20260504021522 | 7 | 37 | 0.0 | 3.2 | 0.00 | 0.00 | 0.00 | 61 | 1017.1 |
| 20260504020025 | 8 | 25 | 0.0 | 8.0 | 0.00 | 0.00 | 0.00 | 56 | 1016.7 |
| 20260504014524 | 8 | 31 | 0.0 | 3.2 | 0.00 | 0.00 | 0.00 | 57 | 1016.7 |
| 20260504013012 | 8 | 29 | 3.2 | 6.4 | 0.00 | 0.00 | 0.00 | 53 | 1016.5 |
| 20260504011518 | 7 | 39 | 1.6 | 6.4 | 0.00 | 0.00 | 0.00 | 60 | 1016.4 |
| 20260504010023 | 7 | 51 | 1.6 | 6.4 | 0.00 | 0.00 | 0.00 | 59 | 1016.2 |
| 20260504004531 | 7 | 360 | 0.0 | 4.8 | 0.00 | 0.00 | 0.00 | 58 | 1016.0 |
| 20260504003024 | 8 | 14 | 0.0 | 0.0 | 0.00 | 0.00 | 0.00 | 58 | 1016.0 |
| 20260504001503 | 8 | 14 | 0.0 | 0.0 | 0.00 | 0.00 | 0.00 | 55 | 1016.0 |
| 20260504000000 | 9 | 10 | 0.0 | 0.0 | 0.00 | 0.00 | 0.00 | 51 | 1015.8 |
| 20260503234501 | 10 | 8 | 0.0 | 0.0 | 0.00 | 0.00 | 0.00 | 49 | 1015.9 |
| 20260503233004 | 11 | 1 | 0.0 | 4.8 | 0.00 | 0.00 | 0.00 | 42 | 1015.9 |
| 20260503231503 | 12 | 58 | 1.6 | 4.8 | 0.00 | 0.00 | 0.00 | 41 | 1015.9 |
| 20260503230001 | 12 | 339 | 0.0 | 3.2 | 0.00 | 0.00 | 0.00 | 40 | 1015.8 |
| 20260503224501 | 14 | 181 | 1.6 | 14.5 | 0.00 | 0.00 | 0.00 | 29 | 1015.7 |
| 20260503223005 | 14 | 237 | 4.8 | 12.9 | 0.00 | 0.00 | 0.00 | 28 | 1015.7 |
| 20260503221504 | 13 | 155 | 4.8 | 8.0 | 0.00 | 0.00 | 0.00 | 28 | 1015.8 |
| 20260503220003 | 14 | 324 | 1.6 | 8.0 | 0.00 | 0.00 | 0.00 | 27 | 1015.9 |
| 20260503214503 | 14 | 115 | 0.0 | 9.7 | 0.00 | 0.00 | 0.00 | 26 | 1015.9 |
| 20260503213005 | 15 | 81 | 4.8 | 12.9 | 0.00 | 0.00 | 0.00 | 26 | 1015.9 |
| 20260503211503 | 15 | 45 | 3.2 | 12.9 | 0.00 | 0.00 | 0.00 | 27 | 1016.1 |
| 20260503210005 | 15 | 329 | 0.0 | 11.3 | 0.00 | 0.00 | 0.00 | 25 | 1015.9 |
| 20260503204503 | 15 | 316 | 1.6 | 14.5 | 0.00 | 0.00 | 0.00 | 25 | 1016.1 |
| 20260503203004 | 15 | 46 | 1.6 | 12.9 | 0.00 | 0.00 | 0.00 | 26 | 1016.2 |
| 20260503201506 | 16 | 359 | 3.2 | 14.5 | 0.00 | 0.00 | 0.00 | 24 | 1016.5 |
| 20260503200003 | 15 | 310 | 6.4 | 17.7 | 0.00 | 0.00 | 0.00 | 25 | 1016.7 |
| 20260503194506 | 16 | 91 | 8.0 | 17.7 | 0.00 | 0.00 | 0.00 | 23 | 1017.1 |
| 20260503193008 | 15 | 72 | 4.8 | 24.1 | 0.00 | 0.00 | 0.00 | 25 | 1017.2 |
| 20260503191506 | 16 | 340 | 9.7 | 16.1 | 0.00 | 0.00 | 0.00 | 23 | 1017.4 |
| 20260503190005 | 15 | 194 | 4.8 | 12.9 | 0.00 | 0.00 | 0.00 | 25 | 1017.7 |
| 20260503184513 | 15 | 193 | 3.2 | 25.7 | 0.00 | 0.00 | 0.00 | 26 | 1017.9 |
| 20260503183006 | 15 | 51 | 1.6 | 22.5 | 0.00 | 0.00 | 0.00 | 25 | 1018.0 |
| 20260503181506 | 15 | 307 | 3.2 | 12.9 | 0.00 | 0.00 | 0.00 | 25 | 1018.2 |
| 20260503180018 | 15 | 58 | 8.0 | 22.5 | 0.00 | 0.00 | 0.00 | 27 | 1018.5 |
| 20260503174509 | 15 | 338 | 3.2 | 11.3 | 0.00 | 0.00 | 0.00 | 29 | 1018.4 |
| 20260503173009 | 14 | 15 | 3.2 | 22.5 | 0.00 | 0.00 | 0.00 | 27 | 1018.6 |
| 20260503171509 | 14 | 120 | 1.6 | 17.7 | 0.00 | 0.00 | 0.00 | 27 | 1018.7 |
| 20260503081503 | 1 | 168 | 0.0 | 0.0 | 0.00 | 0.00 | 0.00 | 85 | 1017.0 |
| 20260503071509 | 2 | 132 | 0.0 | 0.0 | 0.00 | 0.00 | 0.00 | 82 | 1016.6 |
| 20260503054504 | 1 | 23 | 0.0 | 0.0 | 0.00 | 0.00 | 0.00 | 85 | 1016.6 |
| 20260503053012 | 1 | 8 | 0.0 | 0.0 | 0.00 | 0.00 | 0.00 | 84 | 1016.5 |
| 20260503051513 | 1 | 8 | 0.0 | 0.0 | 0.00 | 0.00 | 0.00 | 83 | 1016.5 |
| 20260503050021 | 1 | 8 | 0.0 | 0.0 | 0.00 | 0.00 | 0.00 | 82 | 1016.5 |
| 20260503044524 | 2 | 8 | 0.0 | 0.0 | 0.00 | 0.00 | 0.00 | 81 | 1016.4 |
| 20260503043010 | 2 | 8 | 0.0 | 0.0 | 0.00 | 0.00 | 0.00 | 81 | 1016.2 |
| 20260503041515 | 2 | 8 | 0.0 | 0.0 | 0.00 | 0.00 | 0.00 | 80 | 1016.1 |
| 20260503040018 | 2 | 8 | 0.0 | 0.0 | 0.00 | 0.00 | 0.00 | 79 | 1016.1 |
| 20260503034537 | 2 | 8 | 0.0 | 0.0 | 0.00 | 0.00 | 0.00 | 77 | 1016.0 |